Flag for Mauritania Weather past 2 weeks in Rosso, Mauritania

Now
82 °F

Partly cloudy.


Feels Like: 91 °F
Forecast: 82 / 96 °F
Wind: 7 mph from Northwest

Location: Saint Airport-Louis

Current Time: Sep 2, 2015 at 7:00:22 AM

Latest Report: Sep 2, 2015 at 6:00 AM


Visibility: N/A

Pressure: 29.89 "Hg

Humidity: 84%

Dew point: 77 °F

Location of RossoLocation

Historic Weather in Rosso — Graph

°F

Rosso temperature yesterday

Maximum temperature yesterday: 88 °F (at 3:00 PM)
Minimum temperature yesterday: 73 °F (at 7:00 AM)
Average temperature yesterday: 81 °F

Past Weeks' High & Low Weather Summary

 TemperatureHumidityPressure
High100 °F (Aug 20, 10:00 PM)100% (Aug 18, 8:00 AM)30.01 "Hg (Aug 18, 8:00 AM)
Low73 °F (Sep 1, 7:00 AM)31% (Aug 19, 5:00 PM)29.77 "Hg (Aug 20, 5:00 PM)
Average85 °F81%29.87 "Hg
* Reported Aug 18 6:00 AM — Sep 2 6:00 AM, Rosso, Weather by CustomWeather, © 2015

Note: Actual official high and low records may vary slightly from our data, if they occured in-between our weather recording intervals... More about our weather records

Advertising

Rosso weather history for previous 24 hours

 ConditionsComfort  
Time TempWeatherWind HumidityBarometerVisibility
6:00 AM
Wed, Sep 2
82 °FPartly cloudy.7 mph84%29.89 "HgN/A
3:00 AM81 °FPartly cloudy.7 mph89%29.89 "HgN/A
2:00 AM79 °FPartly cloudy.5 mph94%29.92 "HgN/A
12:00 AM79 °FPartly cloudy.7 mph94%29.95 "HgN/A
11:00 PM
Tue, Sep 1
79 °FPartly cloudy.5 mph100%29.98 "HgN/A
10:00 PM81 °FThunderstorms. Partly cloudy.5 mph94%29.95 "HgN/A
9:00 PM81 °FThunderstorms. Partly cloudy.No wind100%29.92 "HgN/A
8:00 PM81 °FThunderstorms. Partly cloudy.5 mph94%29.92 "HgN/A
7:00 PM82 °FThunderstorms. Broken clouds.7 mph89%29.89 "HgN/A
6:00 PM86 °FThunderstorms. Broken clouds.5 mph79%29.89 "HgN/A
5:00 PM88 °FBroken clouds.2 mph75%29.89 "HgN/A
4:00 PM88 °FBroken clouds.2 mph70%29.89 "HgN/A
3:00 PM88 °FBroken clouds.7 mph70%29.89 "HgN/A
2:00 PM84 °FBroken clouds.2 mph70%29.92 "HgN/A
1:00 PM82 °FBroken clouds.7 mph84%29.95 "HgN/A
12:00 PM81 °FBroken clouds.5 mph84%29.98 "HgN/A
11:00 AM77 °FLight rain. Broken clouds.5 mph94%30.01 "HgN/A
10:00 AM77 °FBroken clouds.5 mph94%29.98 "HgN/A
9:00 AM75 °FPassing clouds.5 mph94%29.95 "HgN/A
8:00 AM73 °FRain. Partly sunny.5 mph100%29.95 "HgN/A
7:00 AM73 °FThunderstorms. Broken clouds.7 mph100%29.95 "HgN/A
Weather by CustomWeather, © 2015

See weather overviewHow to use our weather pages